Northolt, United Kingdom

12:37 AM BST on March 27, 2017 (GMT +0100)
Northolt Air Base

Weather History for EGWU - October, 2013

Change the Weather History Date:

Wednesday, October 2, 2013

  Actual Average Record
Temperature  
Mean Temperature 64 °F -  
Max Temperature 70 °F 57 °F 82 °F (2011)
Min Temperature 57 °F 46 °F 37 °F (1996)
Degree Days  
Heating Degree Days 2    
Growing Degree Days 14 (Base 50)    
Moisture  
Dew Point 56 °F    
Average Humidity 79    
Maximum Humidity 94    
Minimum Humidity 60    
Precipitation  
Precipitation 0.01 in - - ()
Sea Level Pressure  
Sea Level Pressure 29.84 in    
Wind  
Wind Speed 8 mph ()    
Max Wind Speed 12 mph    
Max Gust Speed -    
Visibility 6.4 miles    
Events Rain    
Averages and records for this station are not official NWS values.
T = Trace of Precipitation, MM = Missing Value Source: Averaged Metar Reports

Daily Weather History Graph

Daily Weather History Graph

Search for Another Location

Airport or City:

Trip Planner

Search our weather history database for the weather conditions in past years. The results will help you decide how hot, cold, wet, or windy it might be!

Date:

Astronomy

Oct. 02, 2013 Rise Set
Actual Time 7:04 AM BST 6:36 PM BST
Civil Twilight 6:30 AM BST 7:10 PM BST
Nautical Twilight 5:51 AM BST 7:48 PM BST
Astronomical Twilight 5:12 AM BST 8:28 PM BST
Moon 4:07 AM BST (10/2) 5:16 PM BST (10/2)
Length of Visible Light 12h 39m
Length of Day
11h 32m
Waning Crescent, 7% of the Moon is Illuminated
Oct 2
Waning Crescent
Oct 5
New
Oct 12
First Quarter
Oct 19
Full
Oct 27
Last Quarter

Hourly Weather History & Observations

Time (BST) Temp. Dew Point Humidity Pressure Visibility Wind Dir Wind Speed Gust Speed Precip Events Conditions
12:50 AM 60 °F 50 °F 60% 29.81 in 16 mi SE 10.4 mph - -   Scattered Clouds
12:50 AM 60.8 °F 50.0 °F 68% 29.80 in 6.2 mi SE 10.4 mph - N/A   Overcast
1:50 AM 60.8 °F 50.0 °F 68% 29.80 in 6.2 mi ESE 11.5 mph - N/A   Mostly Cloudy
2:50 AM 57.2 °F 51.8 °F 82% 29.80 in 6.2 mi ESE 10.4 mph - N/A   Mostly Cloudy
3:50 AM 58 °F 52 °F 74% 29.80 in 13 mi ESE 10.4 mph - -   Mostly Cloudy
3:50 AM 57.2 °F 51.8 °F 82% 29.80 in 6.2 mi ESE 10.4 mph - N/A   Mostly Cloudy
4:50 AM 57.2 °F 51.8 °F 82% 29.80 in 6.2 mi SE 9.2 mph - N/A   Overcast
5:50 AM 57.2 °F 53.6 °F 88% 29.80 in 6.2 mi SE 8.1 mph - N/A   Overcast
6:50 AM 57 °F 54 °F 85% 29.81 in 5 mi ESE 9.2 mph - - Rain Light Rain
6:50 AM 57.2 °F 53.6 °F 88% 29.80 in 5.0 mi ESE 9.2 mph - N/A   Haze
7:50 AM 57.2 °F 53.6 °F 88% 29.80 in 5.0 mi ESE 10.4 mph - N/A   Haze
8:50 AM 57.2 °F 55.4 °F 94% 29.83 in 3.7 mi SE 10.4 mph - N/A   Haze
9:50 AM 59 °F 55 °F 84% 29.85 in 4 mi ESE 8.1 mph - -   Haze
9:50 AM 59.0 °F 55.4 °F 88% 29.83 in 3.7 mi ESE 8.1 mph - N/A   Haze
10:50 AM 60.8 °F 55.4 °F 82% 29.83 in 5.6 mi SE 11.5 mph - N/A   Overcast
11:50 AM 62.6 °F 57.2 °F 82% 29.83 in 4.3 mi SE 8.1 mph - N/A   Haze
12:50 PM 67 °F 58 °F 67% 29.85 in 6 mi SE 8.1 mph - -   Haze
12:50 PM 68.0 °F 59.0 °F 73% 29.83 in 5.6 mi SE 8.1 mph - N/A   Haze
1:30 PM 68.0 °F 59.0 °F 73% 29.83 in 6.2 mi SE 8.1 mph - N/A   Mostly Cloudy
1:50 PM 66.2 °F 59.0 °F 78% 29.83 in 6.2 mi ESE 10.4 mph - N/A   Mostly Cloudy
2:50 PM 68.0 °F 59.0 °F 73% 29.83 in 6.2 mi ESE 9.2 mph - N/A   Mostly Cloudy
3:50 PM 68 °F 58 °F 63% 29.84 in 9 mi SSE 10.4 mph - -   Mostly Cloudy
3:50 PM 68.0 °F 59.0 °F 73% 29.83 in 6.2 mi SSE 10.4 mph - N/A   Mostly Cloudy
4:50 PM 68.0 °F 59.0 °F 73% 29.83 in 6.2 mi SSE 11.5 mph - N/A   Mostly Cloudy
5:50 PM 66.2 °F 57.2 °F 73% 29.86 in 6.2 mi South 8.1 mph - N/A   Mostly Cloudy
6:50 PM 64 °F 56 °F 70% 29.87 in 12 mi SSE 9.2 mph - -   Partly Cloudy
6:50 PM 64.4 °F 57.2 °F 77% 29.86 in 6.2 mi SSE 9.2 mph - N/A   Mostly Cloudy
7:50 PM 62.6 °F 57.2 °F 82% 29.86 in - SSE 6.9 mph - N/A   Clear
8:50 PM 62.6 °F 59.0 °F 88% 29.89 in - SE 6.9 mph - N/A   Clear
9:50 PM 61 °F 58 °F 85% 29.90 in 6 mi SSE 6.9 mph - -   Scattered Clouds
9:50 PM 60.8 °F 57.2 °F 88% 29.89 in - SSE 6.9 mph - N/A   Clear
10:50 PM 59.0 °F 57.2 °F 94% 29.89 in 5.0 mi ESE 3.5 mph - N/A   Haze
11:50 PM 57.2 °F 55.4 °F 94% 29.89 in 3.1 mi East 4.6 mph - N/A   Unknown